Location: Poughquag
(41.6090°N, 73.6820°W)
Time: 12:04:23
(UTC-04:00)

A-11 Canister half - Pass Details

Date: 05 June 2020
Orbit: 1527 x 1682 km, 47.3° (Epoch: 06 July)

Event Time Altitude Azimuth Distance (km) Brightness Sun altitude
Rises 08:43:42 0° 266° (W) 4,674 11.0 35.1°
Reaches altitude 10° 08:46:47 10° 270° (W) 3,694 10.6 35.7°
Maximum altitude 08:56:02 65° 351° (N) 1,675 9.7 37.4°
Drops below altitude 10° 09:05:28 10° 73° (ENE) 3,766 12.1 39.2°
Sets 09:08:39 0° 77° (ENE) 4,770 12.4 39.8°
